Location: Huesca
(42.1318°N, 0.4078°W)
Time: 04:24:15
(UTC+02:00)

RS-15 - Pass Details

Date: 01 May 2024
Orbit: 1896 x 2149 km, 64.8° (Epoch: 29 May)

Event Time Altitude Azimuth Distance (km) Brightness Sun altitude
Rises 21:42:01 0° 231° (SW) 5,611 10.7 -7.7°
Reaches altitude 10° 21:45:36 10° 235° (SW) 4,587 10.3 -8.2°
Maximum altitude 21:57:16 57° 313° (NW) 2,327 8.8 -10.1°
Drops below altitude 10° 22:08:29 10° 31° (NNE) 4,402 9.9 -11.8°
Sets 22:11:52 0° 36° (NE) 5,374 10.3 -12.4°
